Location: Saddleback Butte
(34.6776°N, 117.8050°W)
Time: 21:49:52
(UTC-07:00)

Iridium 35 - Visible Passes

Search period start: 30 June 2015 00:00
Search period end: 10 July 2015 00:00
Orbit: 776 x 779 km, 86.4° (Epoch: 30 June)

Date Brightness Start Highest point End Pass type
(mag) Time Alt. Az. Time Alt. Az. Time Alt. Az.
30 Jun 5.3 23:30:08 60° NNE 23:30:08 60° NNE 23:34:32 10° N visible
01 Jul 7.6 01:10:35 10° WNW 01:10:45 10° WNW 01:10:56 10° WNW visible
01 Jul 5.9 22:56:34 36° ENE 22:56:34 36° ENE 23:00:41 10° NNE visible
02 Jul 7.0 00:37:01 20° WNW 00:37:01 20° WNW 00:40:32 10° NNW visible
02 Jul 6.6 22:22:59 19° ENE 22:22:59 19° ENE 22:26:17 10° NE visible
03 Jul 6.1 00:03:27 38° WNW 00:03:27 38° WNW 00:07:51 10° NNW visible
03 Jul 5.2 23:29:52 70° NW 23:29:52 70° NW 23:34:38 10° N visible
04 Jul 5.3 22:56:16 55° ENE 22:56:16 55° ENE 23:01:02 10° NNE visible
05 Jul 7.4 00:36:44 14° W 00:37:08 14° WNW 00:39:32 10° NW visible
05 Jul 6.1 22:22:40 29° E 22:22:40 29° E 22:27:00 10° NNE visible
06 Jul 6.6 00:03:08 26° W 00:03:15 26° W 00:07:32 10° NNW visible
06 Jul 6.8 21:49:03 15° E 21:49:12 15° E 21:52:13 10° NE visible
06 Jul 5.6 23:29:31 50° W 23:29:33 50° W 23:34:36 10° N visible
07 Jul 4.8 22:55:53 83° ESE 22:56:00 84° E 23:01:14 10° N visible
08 Jul 5.4 22:22:14 42° E 22:22:33 42° E 22:27:28 10° NNE visible
09 Jul 7.1 00:02:41 17° W 00:03:33 18° WNW 00:06:55 10° NW visible
09 Jul 6.3 21:48:35 22° E 21:49:10 22° E 21:53:13 10° NNE visible
09 Jul 6.2 23:29:02 32° W 23:29:44 33° W 23:34:25 10° NNW visible
